User: anonymous   Login
Location: ???????
(55.3754°N, 39.3545°E)
Time: 06:28:45
(UTC+00:00)
Language:

Cosmos 1818 - Orbit

View from above orbital plane
View from above orbital plane
View from above satellite
View from above satellite

Ground track
Ground track

The orbit is defined by the following mean orbital elements,

1 17369U          26160.63998054 +.00000000 +00000-0 +21229-4 0 00008
2 17369  65.0117 268.5051 0017313 285.9264  73.9913 14.31872280    04
Epoch (UTC): 09 June 2026 15:21:34
Eccentricity: 0.0017313
inclination: 65.0117°
perigee height: 773 km
apogee height: 798 km
right ascension of ascending node: 268.5051°
argument of perigee: 285.9264°
revolutions per day: 14.31872280
mean anomaly at epoch: 73.9913°

The dashed part of the orbit path shows where the satellite is in the earth's shadow,  

DLR